Regional Weather Roundup
Issued by NWS

Home | Current Version | Previous Version | Text Only | Print | Product List | Glossary Off
Versions: 1 2 3 4 5 6 7 8 9 10 11 12 13 14 15 16 17 18 19 20 21 22 23 24 25 26 27 28 29 30 31 32 33 34 35 36 37 38 39 40 41 42 43 44 45 46 47 48 49 50

000
ASUS43 KOAX 232002
RWRNE

WEATHER ROUNDUP FOR NEBRASKA
NATIONAL WEATHER SERVICE OMAHA NE
200 PM CST MON JAN 23 2017

NOTES: SATELLITE DATA IS BEING USED TO AUGMENT CLOUD COVER ABOVE
       12000 FEET.
       "FAIR" INDICATES FEW OR NO CLOUDS BELOW 12,000 FEET WITH NO
       SIGNIFICANT WEATHER AND/OR OBSTRUCTIONS TO VISIBILITY.

  * THESE STATIONS DO NOT REPORT WEATHER SUCH AS RAIN...SNOW OR FOG.

NEZ001>004-019>022-054>056-232100-
NEBRASKA PANHANDLE

CITY           SKY/WX    TMP DP  RH WIND       PRES   REMARKS
SCOTTSBLUFF    SUNNY     45  25  45 SE5       29.55F
ALLIANCE       SUNNY     47  25  42 W6        29.54F
CHADRON        PTSUNNY   40  27  59 N6        29.56F
KIMBALL        CLOUDY    45  30  55 CALM      29.56F
SIDNEY         SUNNY     50  25  37 NE8       29.56F
$$

NEZ057>060-069>072-079>082-232100-
SOUTHWEST NEBRASKA

CITY           SKY/WX    TMP DP  RH WIND       PRES   REMARKS
NORTH PLATTE   SUNNY     49  29  46 SE14G24   29.60F
IMPERIAL       SUNNY     47  25  42 CALM      29.58F
LEXINGTON      SUNNY     47  32  55 SE17G24   29.64F
MCCOOK         SUNNY     51  31  46 S16G24    29.60F
OGALLALA       SUNNY     47  29  51 CALM      29.59F
$$

NEZ005>010-023>029-035>040-094-232100-
NORTH CENTRAL NEBRASKA

CITY           SKY/WX    TMP DP  RH WIND       PRES   REMARKS
VALENTINE      CLOUDY    45  26  47 SE14      29.62F
AINSWORTH      CLOUDY    39  31  71 SE10      29.64F WCI  32
BROKEN BOW     MOSUNNY   42  33  70 SE10      29.65F
O`NEILL        CLOUDY    34  34  99 SE10      29.71F WCI  26
ORD            PTSUNNY   37  30  75 SE9       29.69F WCI  30
THEDFORD       MOSUNNY   48  30  49 S16       29.61F
$$

NEZ041-046>049-061>064-073>077-083>087-232100-
SOUTH CENTRAL NEBRASKA

CITY           SKY/WX    TMP DP  RH WIND       PRES   REMARKS
GRAND ISLAND   CLOUDY    34  32  92 E10       29.73F WCI  26
AURORA         CLOUDY    32  32 100 E9        29.74F FOG     WCI  24
HASTINGS       CLOUDY    39  33  79 E12       29.72F WCI  32
HEBRON         MOSUNNY   43  35  72 E7        29.75F
HOLDREGE       SUNNY     47  30  52 SE13      29.66F
KEARNEY *      SUNNY     43  34  70 E12       29.69F
YORK           PTSUNNY   32  32 100 SE10      29.77F WCI  24
$$

NEZ011>018-030>034-042>045-232100-
NORTHEAST NEBRASKA

CITY           SKY/WX    TMP DP  RH WIND       PRES   REMARKS
NORFOLK        CLOUDY    35  27  72 E10       29.76F WCI  27
ALBION         CLOUDY    36  28  73 SE10      29.74F WCI  28
BLAIR          CLOUDY    35  30  82 SE3       29.82F
FREMONT        PTSUNNY   36  31  81 E3        29.82F
TEKAMAH        CLOUDY    34  28  79 CALM      29.84F
WAYNE          CLOUDY    34  30  85 S7        29.80F WCI  28
$$

NEZ050>053-065>068-078-088>093-232100-
SOUTHEAST NEBRASKA

CITY           SKY/WX    TMP DP  RH WIND       PRES   REMARKS
LINCOLN        SUNNY     40  31  70 SE9       29.82F WCI  34
OMAHA EPPLEY   CLOUDY    36  28  73 CALM      29.84F
BEATRICE       CLOUDY    35  34  99 E6        29.81F WCI  29
FALLS CITY     CLOUDY    37  31  78 E3        29.84F
NEBRASKA CITY  CLOUDY    34  28  78 SE3       29.84F
PLATTSMOUTH    CLOUDY    35  27  73 E3        29.84F
$$

NEZ044-045-051>053-067-232100-
OMAHA AREA

CITY           SKY/WX    TMP DP  RH WIND       PRES   REMARKS
OMAHA EPPLEY   CLOUDY    36  28  73 CALM      29.84F
BLAIR          CLOUDY    35  30  82 SE3       29.82F
FREMONT        PTSUNNY   36  31  81 E3        29.82F
MILLARD        CLOUDY    39  31  73 SE7       29.83F WCI  34
OFFUTT AFB     CLOUDY    36  32  87 SE3       29.84F
PLATTSMOUTH    CLOUDY    35  27  73 E3        29.84F
WAHOO          CLOUDY    36  30  80 E8        29.82F WCI  29
$$



USA.gov is the U.S. government's official web portal to all federal, state and local government web resources and services.